Rising Eagle — J8B4538 — position and weather

sailwx.info

Track history (hours):
 
Tides and Currents Weather Stations Pressure Air Temp Water Temp Dewpoint Dewpoint Depression Visibility Wind Speed Wind Dir Waves Ship Positions

Rising Eagle

Last reported at 2015-Jul-06 00:33 UTC. Time now 2015-Aug-03 08:38 UTC.
Position N 31°17' E 032°20'.
Warning: this ship's position is 28 days out of date.

Length 167 m; draft 9.7 m.

Type: Cargo ship. MMSI: 376369000.

Date/timePositionNaut miles runAvg speedWind from/ knotsBaromVisibWave heightAir tempDewpointWater temp
2015-Jul-06 00:33N 31°17' E 032°20'7 5.9
2015-Jul-05 23:22N 31°23' E 032°22'3 3.9
2015-Jul-05 22:33N 31°23' E 032°18'0 0.1
2015-Jul-05 21:25N 31°23' E 032°18'0 0.0
2015-Jul-05 20:22N 31°23' E 032°18'0 0.0
2015-Jul-05 19:31N 31°23' E 032°18'0 0.0
2015-Jul-05 18:31N 31°23' E 032°18'0 0.0
2015-Jul-05 17:25N 31°23' E 032°18'0 0.0
2015-Jul-05 16:31N 31°23' E 032°18'0 0.0
2015-Jul-05 15:31N 31°23' E 032°18'0 0.0
2015-Jul-05 14:31N 31°23' E 032°18'0 0.1
2015-Jul-05 13:27N 31°23' E 032°18'5 5.8
2015-Jul-05 12:33N 31°27' E 032°16'1211.7
2015-Jul-05 11:33N 31°36' E 032°07'4912.2
2015-Jul-05 07:31N 32°16' E 031°32'1212.1
2015-Jul-05 06:33N 32°25' E 031°23'1212.0
2015-Jul-05 05:34N 32°33' E 031°13'1411.4
2015-Jul-05 04:18N 32°44' E 031°02'911.3
2015-Jul-05 03:33N 32°50' E 030°55'1211.7
2015-Jul-05 02:32N 32°59' E 030°46'1212.0
2015-Jul-05 01:33N 33°08' E 030°36'1511.7
2015-Jul-05 00:15N 33°18' E 030°23'811.7
2015-Jul-04 23:33N 33°24' E 030°16'1212.0
2015-Jul-04 22:33N 33°32' E 030°06'1312.3
2015-Jul-04 21:32N 33°41' E 029°55'1212.5
2015-Jul-04 20:32N 33°51' E 029°46'1212.7
2015-Jul-04 19:34N 34°00' E 029°36'22612.3
2015-Jul-04 01:07N 36°45' E 026°26'912.1
2015-Jul-04 00:21N 36°52' E 026°18'2211.9
2015-Jul-03 22:32N 37°10' E 026°03'1211.8
2015-Jul-03 21:33N 37°20' E 025°55'1211.8
2015-Jul-03 20:34N 37°30' E 025°48'1212.1
2015-Jul-03 19:34N 37°41' E 025°41'24610.2
2015-Jul-02 19:30N 40°56' E 028°53'6 6.3
2015-Jul-02 18:28N 41°01' E 028°59'19 9.8
2015-Jul-02 16:33N 41°18' E 029°08'18 4.4
2015-Jul-02 12:24N 41°30' E 029°28'25811.8
2015-Jul-01 14:33N 43°32' E 034°36'2311.7
2015-Jul-01 12:33N 43°43' E 035°05'1411.5
2015-Jul-01 11:20N 43°50' E 035°21'911.6
2015-Jul-01 10:34N 43°55' E 035°32'  
Track history (hours):
 
Tides and Currents Weather Stations Pressure Air Temp Water Temp Dewpoint Dewpoint Depression Visibility Wind Speed Wind Dir Waves Ship Positions

Rising Eagle

Last reported at 2015-Jul-06 00:33 UTC. Time now 2015-Aug-03 08:38 UTC.
Position N 31°17' E 032°20'.
Warning: this ship's position is 28 days out of date.

Length 167 m; draft 9.7 m.

Type: Cargo ship. MMSI: 376369000.

Date/timePositionNaut miles runAvg speedWind from/ knotsBaromVisibWave heightAir tempDewpointWater temp
2015-Jul-06 00:33N 31°17' E 032°20'7 5.9
2015-Jul-05 23:22N 31°23' E 032°22'3 3.9
2015-Jul-05 22:33N 31°23' E 032°18'0 0.1
2015-Jul-05 21:25N 31°23' E 032°18'0 0.0
2015-Jul-05 20:22N 31°23' E 032°18'0 0.0
2015-Jul-05 19:31N 31°23' E 032°18'0 0.0
2015-Jul-05 18:31N 31°23' E 032°18'0 0.0
2015-Jul-05 17:25N 31°23' E 032°18'0 0.0
2015-Jul-05 16:31N 31°23' E 032°18'0 0.0
2015-Jul-05 15:31N 31°23' E 032°18'0 0.0
2015-Jul-05 14:31N 31°23' E 032°18'0 0.1
2015-Jul-05 13:27N 31°23' E 032°18'5 5.8
2015-Jul-05 12:33N 31°27' E 032°16'1211.7
2015-Jul-05 11:33N 31°36' E 032°07'4912.2
2015-Jul-05 07:31N 32°16' E 031°32'1212.1
2015-Jul-05 06:33N 32°25' E 031°23'1212.0
2015-Jul-05 05:34N 32°33' E 031°13'1411.4
2015-Jul-05 04:18N 32°44' E 031°02'911.3
2015-Jul-05 03:33N 32°50' E 030°55'1211.7
2015-Jul-05 02:32N 32°59' E 030°46'1212.0
2015-Jul-05 01:33N 33°08' E 030°36'1511.7
2015-Jul-05 00:15N 33°18' E 030°23'811.7
2015-Jul-04 23:33N 33°24' E 030°16'1212.0
2015-Jul-04 22:33N 33°32' E 030°06'1312.3
2015-Jul-04 21:32N 33°41' E 029°55'1212.5
2015-Jul-04 20:32N 33°51' E 029°46'1212.7
2015-Jul-04 19:34N 34°00' E 029°36'22612.3
2015-Jul-04 01:07N 36°45' E 026°26'912.1
2015-Jul-04 00:21N 36°52' E 026°18'2211.9
2015-Jul-03 22:32N 37°10' E 026°03'1211.8
2015-Jul-03 21:33N 37°20' E 025°55'1211.8
2015-Jul-03 20:34N 37°30' E 025°48'1212.1
2015-Jul-03 19:34N 37°41' E 025°41'24610.2
2015-Jul-02 19:30N 40°56' E 028°53'6 6.3
2015-Jul-02 18:28N 41°01' E 028°59'19 9.8
2015-Jul-02 16:33N 41°18' E 029°08'18 4.4
2015-Jul-02 12:24N 41°30' E 029°28'25811.8
2015-Jul-01 14:33N 43°32' E 034°36'2311.7
2015-Jul-01 12:33N 43°43' E 035°05'1411.5
2015-Jul-01 11:20N 43°50' E 035°21'911.6
2015-Jul-01 10:34N 43°55' E 035°32'  

Dump ship's entire track history